Location: Aalsum
(53.3404°N, 6.0062°E)
Time: 08:49:46
(UTC+00:00)

Cosmos 2026 Rocket - Pass Details

Date: 28 January 2023
Orbit: 940 x 999 km, 82.9° (Epoch: 19 March)

Event Time Altitude Azimuth Distance (km) Brightness Sun altitude
Rises 16:43:36 0° 348° (NNW) 3,621 6.9 -5.2°
Reaches altitude 10° 16:46:05 10° 348° (NNW) 2,676 6.2 -5.5°
Maximum altitude 16:52:12 80° 263° (W) 972 4.2 -6.4°
Drops below altitude 10° 16:58:21 10° 177° (S) 2,690 6.6 -7.2°
Sets 17:00:51 0° 176° (S) 3,641 7.2 -7.6°
